Location: Aufkirchen
(47.9603°N, 11.3653°E)
Time: 14:17:07
(UTC+01:00)

Transit 2A Rocket - Pass Details

Date: 05 December 2020
Orbit: 592 x 910 km, 66.7° (Epoch: 21 January)

Event Time Altitude Azimuth Distance (km) Brightness Sun altitude
Rises 00:12:18 0° 192° (SSW) 3,502 - -64.4°
Reaches altitude 10° 00:14:57 10° 186° (S) 2,543 - -64.4°
Maximum altitude 00:20:31 44° 116° (ESE) 1,164 - -64.2°
Drops below altitude 10° 00:25:45 10° 46° (NE) 2,396 - -64.1°
Sets 00:28:11 0° 40° (NE) 3,281 - -64.0°
